{"data":{"norad_id":69082,"epoch":"2026-05-25T04:33:29.604672Z","epoch_age_seconds":61708,"freshness":"FRESH","line1":"1 69082U 26104K   26145.18992598  .00000081  00000+0  31147-4 0  9995","line2":"2 69082  88.9865 344.2476 0003352 173.3594 186.7641 14.19910021  1828","mean_motion":14.19910021,"eccentricity":0.0003352,"inclination_deg":88.9865,"raan_deg":344.2476,"arg_perigee_deg":173.3594,"mean_anomaly_deg":186.7641,"bstar":3.1147e-5,"rev_number":182,"period_min":101.41487690789,"perigee_km":823.24239796572,"apogee_km":828.07182153689,"semimajor_km":7203.7941097513,"source":"CELESTRAK","updated_at":"2026-05-25T13:38:09.050913Z"}}